Weather History for KCWI - November, 2011

Change the Weather History Date:

Thursday, November 10, 2011

  Actual Average Record
Temperature  
Mean Temperature - -  
Max Temperature - 48 °F 73 °F (1949)
Min Temperature - 31 °F 16 °F (1973)
Moisture  
Dew Point -    
Average Humidity    
Maximum Humidity    
Minimum Humidity    
Precipitation  
Precipitation 0.00 in - - ()
Sea Level Pressure  
Sea Level Pressure 30.06 in    
Wind  
Wind Speed 13 mph (West)    
Max Wind Speed 21 mph    
Max Gust Speed 25 mph    
Visibility 10 miles    
Events      
Averages and records for this station are not official NWS values.
T = Trace of Precipitation, MM = Missing Value Source: NWS Daily Summary

Daily Weather History Graph

Daily Weather History Graph

Search for Another Location

Airport or City:

Trip Planner

Search our weather history database for the weather conditions in past years. The results will help you decide how hot, cold, wet, or windy it might be!

Date:

Astronomy

Nov. 10, 2011 Rise Set
Actual Time 6:44 AM CST 4:45 PM CST
Civil Twilight 6:14 AM CST 5:15 PM CST
Nautical Twilight 5:41 AM CST 5:48 PM CST
Astronomical Twilight 5:08 AM CST 6:21 PM CST
Moon 4:32 PM CST (11/10) 6:37 AM CST (11/10)
Length of Visible Light 11h 00m
Length of Day
10h 01m
Full, 100% of the Moon is Illuminated
Nov 10
Full
Nov 10
Full
Nov 18
Last Quarter
Nov 25
New
Dec 2
First Quarter

Hourly Weather History & Observations

Time (CST) Temp. Dew Point Humidity Pressure Visibility Wind Dir Wind Speed Gust Speed Precip Events Conditions
12:15 AM - - N/A% 30.04 in 10.0 mi West 10.4 mph - N/A   Clear
12:35 AM - - N/A% 30.04 in 10.0 mi West 11.5 mph - N/A   Clear
12:55 AM - - N/A% 30.04 in 10.0 mi West 11.5 mph - N/A   Clear
1:15 AM - - N/A% 30.03 in 10.0 mi West 11.5 mph - N/A   Clear
1:35 AM - - N/A% 30.04 in 10.0 mi West 11.5 mph - N/A   Clear
1:55 AM - - N/A% 30.03 in 10.0 mi West 10.4 mph - N/A   Clear
2:15 AM - - N/A% 30.03 in 10.0 mi West 11.5 mph - N/A   Clear
2:35 AM - - N/A% 30.03 in 10.0 mi West 12.7 mph - N/A   Clear
2:55 AM - - N/A% 30.03 in 10.0 mi West 11.5 mph - N/A   Partly Cloudy
3:15 AM - - N/A% 30.02 in 10.0 mi West 11.5 mph - N/A   Mostly Cloudy
3:35 AM - - N/A% 30.02 in 10.0 mi West 10.4 mph - N/A   Overcast
3:55 AM - - N/A% 30.02 in 10.0 mi West 12.7 mph - N/A   Overcast
4:15 AM - - N/A% 30.02 in 10.0 mi West 11.5 mph - N/A   Overcast
4:55 AM - - N/A% 30.02 in 10.0 mi West 9.2 mph - N/A   Clear
5:15 AM - - N/A% 30.02 in 10.0 mi West 11.5 mph - N/A   Mostly Cloudy
5:35 AM - - N/A% 30.02 in 10.0 mi West 13.8 mph 18.4 mph N/A   Overcast
5:55 AM - - N/A% 30.02 in 10.0 mi West 13.8 mph - N/A   Overcast
6:15 AM - - N/A% 30.02 in 10.0 mi West 12.7 mph - N/A   Overcast
6:35 AM - - N/A% 30.03 in 10.0 mi West 11.5 mph - N/A   Overcast
6:55 AM - - N/A% 30.03 in 10.0 mi West 13.8 mph 18.4 mph N/A   Overcast
7:15 AM - - N/A% 30.04 in 10.0 mi West 13.8 mph - N/A   Overcast
7:35 AM - - N/A% 30.05 in 10.0 mi West 9.2 mph - N/A   Overcast
7:55 AM - - N/A% 30.05 in 10.0 mi West 10.4 mph - N/A   Overcast
8:35 AM - - N/A% 30.05 in 10.0 mi West 13.8 mph - N/A   Overcast
8:55 AM - - N/A% 30.06 in 10.0 mi West 15.0 mph - N/A   Overcast
9:15 AM - - N/A% 30.06 in 10.0 mi West 12.7 mph - N/A   Overcast
9:35 AM - - N/A% 30.06 in 10.0 mi West 15.0 mph 23.0 mph N/A   Overcast
10:15 AM - - N/A% 30.07 in 10.0 mi WNW 19.6 mph 23.0 mph N/A   Overcast
10:35 AM - - N/A% 30.07 in 10.0 mi WNW 17.3 mph - N/A   Overcast
10:55 AM - - N/A% 30.07 in 10.0 mi West 17.3 mph 23.0 mph N/A   Overcast
11:15 AM - - N/A% 30.07 in 10.0 mi WNW 17.3 mph 24.2 mph N/A   Overcast
11:35 AM - - N/A% 30.07 in 10.0 mi WNW 19.6 mph 25.3 mph N/A   Mostly Cloudy
11:55 AM - - N/A% 30.07 in 10.0 mi WNW 20.7 mph 25.3 mph N/A   Overcast
12:55 PM - - N/A% 30.06 in 10.0 mi WNW 15.0 mph 20.7 mph N/A   Overcast
1:15 PM - - N/A% 30.05 in 10.0 mi WNW 18.4 mph 21.9 mph N/A   Overcast
1:35 PM - - N/A% 30.06 in 10.0 mi WNW 17.3 mph - N/A   Overcast
1:55 PM - - N/A% 30.05 in 10.0 mi WNW 20.7 mph - N/A   Overcast
2:35 PM - - N/A% 30.06 in 10.0 mi WNW 18.4 mph 21.9 mph N/A   Mostly Cloudy
2:55 PM - - N/A% 30.07 in 10.0 mi WNW 15.0 mph 20.7 mph N/A   Overcast
3:15 PM - - N/A% 30.07 in 10.0 mi WNW 13.8 mph - N/A   Overcast
3:35 PM - - N/A% 30.08 in 10.0 mi WNW 17.3 mph - N/A   Overcast
3:55 PM - - N/A% 30.08 in 10.0 mi WNW 16.1 mph - N/A   Overcast
4:15 PM - - N/A% 30.09 in 10.0 mi WNW 17.3 mph 23.0 mph N/A   Overcast
4:35 PM - - N/A% 30.09 in 10.0 mi WNW 15.0 mph 20.7 mph N/A   Overcast
4:55 PM - - N/A% 30.09 in 10.0 mi West 11.5 mph - N/A   Overcast
5:15 PM - - N/A% 30.09 in 10.0 mi West 12.7 mph - N/A   Overcast
5:35 PM - - N/A% 30.09 in 10.0 mi WNW 13.8 mph - N/A   Overcast
5:55 PM - - N/A% 30.09 in 10.0 mi West 11.5 mph - N/A   Overcast
6:15 PM - - N/A% 30.09 in 10.0 mi WNW 11.5 mph - N/A   Overcast
6:35 PM - - N/A% 30.09 in 10.0 mi West 10.4 mph - N/A   Overcast
6:55 PM - - N/A% 30.09 in 10.0 mi West 9.2 mph - N/A   Overcast
7:15 PM - - N/A% 30.09 in 10.0 mi West 9.2 mph - N/A   Overcast
7:35 PM - - N/A% 30.09 in 10.0 mi West 9.2 mph - N/A   Overcast
7:55 PM - - N/A% 30.09 in 10.0 mi West 6.9 mph - N/A   Overcast
8:15 PM - - N/A% 30.09 in 10.0 mi West 8.1 mph - N/A   Overcast
8:35 PM - - N/A% 30.09 in 10.0 mi West 8.1 mph - N/A   Overcast
8:55 PM - - N/A% 30.09 in 10.0 mi West 6.9 mph - N/A   Overcast
9:15 PM - - N/A% 30.09 in 10.0 mi West 5.8 mph - N/A   Overcast
9:35 PM - - N/A% 30.09 in 10.0 mi West 6.9 mph - N/A   Overcast
9:55 PM - - N/A% 30.09 in 10.0 mi West 4.6 mph - N/A   Mostly Cloudy
10:15 PM - - N/A% 30.08 in 10.0 mi West 5.8 mph - N/A   Mostly Cloudy
10:35 PM - - N/A% 30.08 in 10.0 mi West 5.8 mph - N/A   Partly Cloudy
10:55 PM - - N/A% 30.09 in 10.0 mi West 4.6 mph - N/A   Clear
11:15 PM - - N/A% 30.08 in 10.0 mi West 6.9 mph - N/A   Clear
11:35 PM - - N/A% 30.08 in 10.0 mi West 6.9 mph - N/A   Clear
11:55 PM - - N/A% 30.08 in 10.0 mi West 5.8 mph - N/A   Clear